480  
ASUS43 KDTX 050610  
RWRMI  
MICHIGAN HOURLY REGIONAL WEATHER ROUNDUP  
NATIONAL WEATHER SERVICE DETROIT/PONTIAC MI  
200 AM EDT WED AUG 05 2015  
 
NOTE: "FAIR" INDICATES FEW OR NO CLOUDS BELOW 12,000 FEET WITH NO  
SIGNIFICANT WEATHER AND/OR TO VISIBILITY
.  
 
MIZ047>049-052>055-059>063-066>070-074>076-081>083-050700-  
SOUTHEAST LOWER MICHIGAN  
 
CITY SKY/WX TMP DP RH WIND PRES REMARKS
 
ADRIAN CLEAR 60 55 83 N6 30.02F  
6HR MIN TEMP: 59; 6HR MAX TEMP: 74;  
 
ALMA CLEAR 54 53 97 CALM 30.03S  
ANN ARBOR CLEAR 63 55 75 NW8 30.01S  
BAD AXE CLOUDY 58 58 99 CALM 30.00S  
CARO MOCLDY 61 58 88 NW5 29.99F  
DETROIT CITY CLEAR 67 54 63 NW5 29.99S  
6HR MIN TEMP: 67; 6HR MAX TEMP: 78;  
 
DETROIT PTCLDY 64 55 72 W7 30.00F  
6HR MIN TEMP: 64; 6HR MAX TEMP: 77;  
 
FLINT CLEAR 61 54 77 W6 30.01F  
6HR MIN TEMP: 61; 6HR MAX TEMP: 76;  
 
GROSSE ILE CLEAR 66 57 72 NW6 29.99S  
HILLSDALE CLEAR 58 58 99 CALM 30.04F  
6HR MIN TEMP: 58; 6HR MAX TEMP: 73;  
 
HOWELL CLEAR 58 54 87 W3 30.02S  
6HR MIN TEMP: 57; 6HR MAX TEMP: 73;  
 
 
CITY SKY/WX TMP DP RH WIND PRES REMARKS
 
JACKSON CLEAR 58 55 90 CALM 30.03S  
6HR MIN TEMP: 58; 6HR MAX TEMP: 72;  
 
LAMBERTVILLE CLEAR 62 56 80 CALM 30.01F  
6HR MIN TEMP: 62; 6HR MAX TEMP: 76;  
 
LANSING CLEAR 58 54 86 CALM 30.03S  
6HR MIN TEMP: 57; 6HR MAX TEMP: 73;  
 
LAPEER FAIR 60 58 92 CALM 30.00F  
MASON CLEAR 56 53 92 CALM 30.03S  
MONROE CLEAR 60 56 87 W5 30.00S  
MT. CLEMENS CLEAR 62 59 91 W5 29.97S  
6HR MIN TEMP: 62; 6HR MAX TEMP: 76;  
 
PONTIAC CLEAR 63 55 75 NW8 30.00S  
6HR MIN TEMP: 63; 6HR MAX TEMP: 74;  
 
PORT HOPE N/A 57 57 100 SW6 29.98F  
6HR MIN TEMP: 57; 6HR MAX TEMP: 67;  
 
PORT HURON FOG 57 57 100 CALM 29.99S VSB 1/2  
TRI CITIES PTCLDY 62 56 80 NW5 30.02S  
6HR MIN TEMP: 62; 6HR MAX TEMP: 75;  
 
MIDLAND FAIR 56 55 95 CALM 30.01F  
6HR MIN TEMP: 56; 6HR MAX TEMP: 72;  
 
TROY CLEAR 66 55 67 NW6 30.01F  
SAGINAW HB PTCLDY 61 55 82 NW6 30.00F  

 
MIZ043>046-050>051-056>058-064>065-071>073-077>080-050700-  
SOUTHWEST LOWER MICHIGAN  
 
CITY SKY/WX TMP DP RH WIND PRES REMARKS
 
BATTLE CREEK N/A N/A N/A N/A MISG 30.04S  
BENTON HARBOR CLEAR 58 56 93 CALM 30.03S  
6HR MIN TEMP: 58; 6HR MAX TEMP: 73;  
 
BIG RAPIDS PTCLDY 55 53 94 CALM 30.04R  
6HR MIN TEMP: 55; 6HR MAX TEMP: 70;  
 
COLDWATER CLEAR 57 56 95 CALM 30.04S  
6HR MIN TEMP: 56; 6HR MAX TEMP: 72;  
 
FREMONT FAIR 58 56 93 CALM 30.03S  
HOLLAND MOCLDY 62 58 86 CALM 30.04R  
6HR MIN TEMP: 60; 6HR MAX TEMP: 74;  
 
GRAND RAPIDS MOCLDY 60 56 86 CALM 30.04R  
6HR MIN TEMP: 60; 6HR MAX TEMP: 74;  
 
IONIA FAIR 59 54 83 W5 30.03R  
6HR MIN TEMP: 57; 6HR MAX TEMP: 73;  
 
KALAMAZOO CLEAR 59 56 89 CALM 30.04S  
6HR MIN TEMP: 58; 6HR MAX TEMP: 74;  
 
LUDINGTON CLOUDY 60 58 92 CALM 30.04S  
6HR MIN TEMP: 58; 6HR MAX TEMP: 71;  
 
MARSHALL CLEAR 57 55 94 CALM 30.03F  
MOUNT PLEASANT CLEAR 59 56 89 CALM 30.02S  
6HR MIN TEMP: 58; 6HR MAX TEMP: 74;  
 
MUSKEGON CLOUDY 64 59 83 NE3 30.04R  
6HR MIN TEMP: 62; 6HR MAX TEMP: 72;  
 
SOUTH HAVEN CLEAR 58 56 93 CALM 30.03F  

 
MIZ016>042-050700-  
NORTHERN LOWER MICHIGAN  
 
CITY SKY/WX TMP DP RH WIND PRES REMARKS
 
ALPENA CLEAR 55 49 80 NW5 30.01R  
6HR MIN TEMP: 55; 6HR MAX TEMP: 69;  
 
BEAVER ISLAND CLEAR 57 50 77 NW6 30.05R  
6HR MIN TEMP: 56; 6HR MAX TEMP: 64;  
 
BELLAIRE MOCLDY 56 54 90 CALM 30.04S  
6HR MIN TEMP: 56; 6HR MAX TEMP: 66;  
 
CADILLAC CLEAR 51 50 97 CALM 30.05S  
CHARLEVOIX CLEAR 59 51 75 N6 30.06F  
FRANKFORT CLEAR 55 54 97 CALM 30.04S  
GAYLORD MOCLDY 57 55 93 W3 30.03S  
6HR MIN TEMP: 57; 6HR MAX TEMP: 64; 6HR PCP: TRACE;  
 
GRAYLING MOCLDY 54 53 95 CALM 30.04S  
HARBOR SPRINGS CLEAR 53 50 90 N3 30.03S  
HOUGHTON LAKE CLEAR 56 53 90 W5 30.04S  
6HR MIN TEMP: 53; 6HR MAX TEMP: 67;  
 
MANISTEE CLEAR 55 52 88 CALM 30.05R  
OSCODA CLEAR 55 53 91 CALM 30.00S  
PELLSTON CLEAR 49 48 97 NW3 30.03S  
6HR MIN TEMP: 47; 6HR MAX TEMP: 66; 6HR PCP: TRACE;  
 
ROGERS CITY CLEAR 54 49 86 W3 30.02S  
TRAVERSE CITY PTCLDY 57 54 89 CALM 30.03S  
6HR MIN TEMP: 57; 6HR MAX TEMP: 67;  
 

 
MIZ007>008-015-050700-  
EASTERN UPPER MICHIGAN  
 
CITY SKY/WX TMP DP RH WIND PRES REMARKS
 
KINROSS CLEAR 48 48 100 W7 30.01R  
6HR MIN TEMP: 48; 6HR MAX TEMP: 61;  
 
MACKINAC ISLAN CLEAR 55 47 75 W10 30.03R  
6HR MIN TEMP: 54; 6HR MAX TEMP: 64;  
 
NEWBERRY CLEAR 49 48 97 W7 30.03R  
6HR MIN TEMP: 48; 6HR MAX TEMP: 59;  
 
S. S. MARIE CLEAR 54 51 90 NW7 29.99R  
6HR MIN TEMP: 53; 6HR MAX TEMP: 59;  
 
MUNISING N/A 53 49 86 S7 30.04R  
6HR MIN TEMP: 53; 6HR MAX TEMP: 63;  
 

 
MIZ004>006-011>014-085-050700-  
CENTRAL UPPER MICHIGAN  
 
CITY SKY/WX TMP DP RH WIND PRES REMARKS
 
MANISTIQUE CLEAR 51 49 92 NW6 30.03F  
6HR MIN TEMP: 47; 6HR MAX TEMP: 63;  
 
ESCANABA CLEAR 50 48 93 W5 30.05S  
6HR MIN TEMP: 46; 6HR MAX TEMP: 64;  
 
MENOMINEE PTCLDY 55 52 88 N6 30.05S  
6HR MIN TEMP: 55; 6HR MAX TEMP: 66;  
 
SAWYER-GWINN CLEAR 47 46 93 N3 30.06S  
6HR MIN TEMP: 46; 6HR MAX TEMP: 59;  
 

 
MIZ001>003-009>011-084-050700-  
WESTERN UPPER MICHIGAN  
 
CITY SKY/WX TMP DP RH WIND PRES REMARKS
 
IRON MOUNTAIN CLEAR 50 47 89 CALM 30.06S  
6HR MIN TEMP: 48; 6HR MAX TEMP: 69;  
 
HOUGHTON CLEAR 51 48 89 NW9 30.06R  
6HR MIN TEMP: 50; 6HR MAX TEMP: 61;  
 
COPPER HARBOR N/A 57 51 80 W8 30.04R  
6HR MIN TEMP: 57; 6HR MAX TEMP: 63;  
 
IRONWOOD CLEAR 46 45 93 CALM 30.06S  
6HR MIN TEMP: 46; 6HR MAX TEMP: 63;  
 

 
 
ABBREVIATIONS USED IN REMARKS  
TC - TEMPERATURE IN CELSIUS  
WCI - WIND CHILL INDEX  
HX - HEAT INDEX  
VSB - VISIBILITY  
 
CLICK HERE TO GO TO PREVIOUS BULLETINS.

The Nexlab MI Page Main Text Page